Weather History for KRCM - November, 2013

Change the Weather History Date:

Thursday, November 14, 2013

  Actual Average (KSZL) Record (KSZL)
Temperature  
Mean Temperature 42 °F -  
Max Temperature 53 °F 53 °F 73 °F (2001)
Min Temperature 32 °F 36 °F 13 °F (2014)
Degree Days  
Heating Degree Days 22    
Moisture  
Dew Point 23 °F    
Average Humidity 51    
Maximum Humidity 75    
Minimum Humidity 30    
Precipitation  
Precipitation 0.00 in - - ()
Sea Level Pressure  
Sea Level Pressure 30.08 in    
Wind  
Wind Speed 10 mph (South)    
Max Wind Speed 21 mph    
Max Gust Speed 28 mph    
Visibility 10 miles    
Events      
Averages and records for this station are not official NWS values.
T = Trace of Precipitation, MM = Missing Value Source: NWS Daily Summary

Daily Weather History Graph

Daily Weather History Graph

Search for Another Location

Airport or City:

Trip Planner

Search our weather history database for the weather conditions in past years. The results will help you decide how hot, cold, wet, or windy it might be!

Date:

Astronomy

Nov. 14, 2013 Rise Set
Actual Time 6:56 AM CST 5:02 PM CST
Civil Twilight 6:28 AM CST 5:30 PM CST
Nautical Twilight 5:56 AM CST 6:02 PM CST
Astronomical Twilight 5:24 AM CST 6:34 PM CST
Moon 3:22 PM CST (11/14) 3:54 AM CST (11/14)
Length of Visible Light 11h 02m
Length of Day
10h 05m
Waxing Gibbous, 92% of the Moon is Illuminated
Nov 14
Waxing Gibbous
Nov 17
Full
Nov 25
Last Quarter
Dec 2
New
Dec 9
First Quarter

Hourly Weather History & Observations

Time (CST) Temp. Windchill Dew Point Humidity Pressure Visibility Wind Dir Wind Speed Gust Speed Precip Events Conditions
12:15 AM 33.8 °F 27.7 °F 21.2 °F 60% 30.22 in 10.0 mi South 6.9 mph - N/A   Clear
12:35 AM 33.8 °F 28.6 °F 21.2 °F 60% 30.21 in 10.0 mi South 5.8 mph - N/A   Clear
12:55 AM 32.0 °F 26.4 °F 21.2 °F 64% 30.21 in 10.0 mi South 5.8 mph - N/A   Clear
1:15 AM 32.0 °F 26.4 °F 21.2 °F 64% 30.20 in 10.0 mi South 5.8 mph - N/A   Clear
1:35 AM 32.0 °F 25.6 °F 23.0 °F 69% 30.20 in 10.0 mi South 6.9 mph - N/A   Clear
1:55 AM 32.0 °F 25.6 °F 23.0 °F 69% 30.20 in 10.0 mi South 6.9 mph - N/A   Clear
2:15 AM 32.0 °F 24.8 °F 23.0 °F 69% 30.19 in 10.0 mi South 8.1 mph - N/A   Clear
2:35 AM 32.0 °F 24.8 °F 23.0 °F 69% 30.19 in 10.0 mi South 8.1 mph - N/A   Clear
2:55 AM 32.0 °F 24.2 °F 23.0 °F 69% 30.18 in 10.0 mi South 9.2 mph - N/A   Clear
3:15 AM 32.0 °F 24.8 °F 23.0 °F 69% 30.18 in 10.0 mi South 8.1 mph - N/A   Clear
3:35 AM 32.0 °F 24.2 °F 23.0 °F 69% 30.18 in 10.0 mi South 9.2 mph - N/A   Clear
3:55 AM 32.0 °F 24.2 °F 23.0 °F 69% 30.17 in 10.0 mi South 9.2 mph - N/A   Clear
4:15 AM 32.0 °F 23.0 °F 23.0 °F 69% 30.17 in 10.0 mi South 11.5 mph - N/A   Clear
4:35 AM 32.0 °F 23.6 °F 23.0 °F 69% 30.17 in 10.0 mi South 10.4 mph 18.4 mph N/A   Clear
4:55 AM 32.0 °F 23.6 °F 23.0 °F 69% 30.16 in 10.0 mi South 10.4 mph - N/A   Clear
5:15 AM 32.0 °F 23.0 °F 23.0 °F 69% 30.16 in 10.0 mi South 11.5 mph 18.4 mph N/A   Clear
5:35 AM 32.0 °F 23.0 °F 24.8 °F 75% 30.15 in 10.0 mi South 11.5 mph 17.3 mph N/A   Clear
5:55 AM 32.0 °F 23.0 °F 24.8 °F 75% 30.15 in 10.0 mi South 11.5 mph - N/A   Clear
6:15 AM 32.0 °F 23.0 °F 24.8 °F 75% 30.15 in 10.0 mi South 11.5 mph 17.3 mph N/A   Clear
6:35 AM 32.0 °F 22.5 °F 24.8 °F 75% 30.15 in 10.0 mi South 12.7 mph 17.3 mph N/A   Clear
7:15 AM 33.8 °F 24.8 °F 24.8 °F 70% 30.14 in 10.0 mi South 12.7 mph 18.4 mph N/A   Clear
7:35 AM 33.8 °F 24.8 °F 24.8 °F 70% 30.13 in 10.0 mi South 12.7 mph - N/A   Clear
8:15 AM 35.6 °F 25.9 °F 24.8 °F 65% 30.13 in 10.0 mi South 16.1 mph 21.9 mph N/A   Clear
8:35 AM 35.6 °F 27.1 °F 24.8 °F 65% 30.13 in 10.0 mi South 12.7 mph 21.9 mph N/A   Clear
8:55 AM 37.4 °F 27.8 °F 24.8 °F 60% 30.13 in 10.0 mi South 17.3 mph 24.2 mph N/A   Clear
9:15 AM 37.4 °F 28.2 °F 24.8 °F 60% 30.12 in 10.0 mi South 16.1 mph 19.6 mph N/A   Clear
9:35 AM 41.0 °F 33.9 °F 26.6 °F 57% 30.12 in 10.0 mi South 12.7 mph 17.3 mph N/A   Clear
9:55 AM 42.8 °F 35.1 °F 26.6 °F 53% 30.11 in 10.0 mi South 16.1 mph 23.0 mph N/A   Clear
10:15 AM 44.6 °F 36.9 °F 24.8 °F 46% 30.10 in 10.0 mi South 18.4 mph 27.6 mph N/A   Clear
10:35 AM 46.4 °F 39.5 °F 23.0 °F 40% 30.10 in 10.0 mi South 17.3 mph 24.2 mph N/A   Clear
10:55 AM 46.4 °F 40.1 °F 23.0 °F 40% 30.10 in 10.0 mi SSW 15.0 mph 25.3 mph N/A   Clear
11:15 AM 48.2 °F - 23.0 °F 37% 30.08 in 10.0 mi SSW 15.0 mph 25.3 mph N/A   Clear
11:35 AM 50.0 °F - 23.0 °F 35% 30.08 in 10.0 mi South 17.3 mph 21.9 mph N/A   Clear
11:55 AM 50.0 °F - 23.0 °F 35% 30.07 in 10.0 mi South 17.3 mph 23.0 mph N/A   Clear
12:15 PM 51.8 °F - 23.0 °F 33% 30.05 in 10.0 mi SSW 20.7 mph 24.2 mph N/A   Clear
12:35 PM 53.6 °F - 24.8 °F 33% 30.05 in 10.0 mi SSW 18.4 mph 23.0 mph N/A   Clear
12:55 PM 53.6 °F - 23.0 °F 30% 30.04 in 10.0 mi SSW 17.3 mph 27.6 mph N/A   Clear
1:15 PM 53.6 °F - 23.0 °F 30% 30.04 in 10.0 mi SSW 19.6 mph 25.3 mph N/A   Clear
1:35 PM 53.6 °F - 23.0 °F 30% 30.04 in 10.0 mi SSW 11.5 mph 24.2 mph N/A   Clear
1:55 PM 53.6 °F - 23.0 °F 30% 30.02 in 10.0 mi South 18.4 mph 23.0 mph N/A   Clear
2:15 PM 53.6 °F - 23.0 °F 30% 30.02 in 10.0 mi South 13.8 mph 23.0 mph N/A   Clear
2:35 PM 53.6 °F - 23.0 °F 30% 30.01 in 10.0 mi South 19.6 mph - N/A   Clear
2:55 PM 51.8 °F - 23.0 °F 33% 30.01 in 10.0 mi South 15.0 mph 21.9 mph N/A   Clear
3:15 PM 53.6 °F - 23.0 °F 30% 30.01 in 10.0 mi South 12.7 mph 17.3 mph N/A   Clear
3:35 PM 53.6 °F - 24.8 °F 33% 30.01 in 10.0 mi South 10.4 mph - N/A   Clear
3:55 PM 51.8 °F - 24.8 °F 35% 30.00 in 10.0 mi South 11.5 mph 17.3 mph N/A   Clear
4:15 PM 51.8 °F - 23.0 °F 33% 30.00 in 10.0 mi South 10.4 mph - N/A   Clear
4:35 PM 50.0 °F - 23.0 °F 35% 30.00 in 10.0 mi South 8.1 mph - N/A   Clear
4:55 PM 48.2 °F - 24.8 °F 40% 30.00 in 10.0 mi South 9.2 mph - N/A   Clear
5:15 PM 46.4 °F 42.4 °F 23.0 °F 40% 30.00 in 10.0 mi South 8.1 mph - N/A   Clear
5:35 PM 46.4 °F 42.4 °F 23.0 °F 40% 30.00 in 10.0 mi South 8.1 mph - N/A   Clear
5:55 PM 44.6 °F 41.4 °F 23.0 °F 43% 30.00 in 10.0 mi South 5.8 mph - N/A   Clear
6:15 PM 44.6 °F 40.7 °F 24.8 °F 46% 30.00 in 10.0 mi South 6.9 mph - N/A   Clear
6:35 PM 44.6 °F 40.2 °F 23.0 °F 43% 30.00 in 10.0 mi South 8.1 mph - N/A   Clear
6:55 PM 44.6 °F 41.4 °F 23.0 °F 43% 30.00 in 10.0 mi South 5.8 mph - N/A   Scattered Clouds
7:15 PM 42.8 °F 40.1 °F 23.0 °F 46% 30.01 in 10.0 mi South 4.6 mph - N/A   Scattered Clouds
7:35 PM 42.8 °F 40.1 °F 23.0 °F 46% 30.00 in 10.0 mi South 4.6 mph - N/A   Mostly Cloudy
7:55 PM 42.8 °F 41.1 °F 23.0 °F 46% 30.01 in 10.0 mi South 3.5 mph - N/A   Scattered Clouds
8:15 PM 41.0 °F 38.0 °F 23.0 °F 49% 30.01 in 10.0 mi South 4.6 mph - N/A   Clear
8:35 PM 41.0 °F 37.1 °F 23.0 °F 49% 30.01 in 10.0 mi South 5.8 mph - N/A   Clear
8:55 PM 41.0 °F 37.1 °F 23.0 °F 49% 30.01 in 10.0 mi South 5.8 mph - N/A   Clear
9:15 PM 41.0 °F 37.1 °F 23.0 °F 49% 30.01 in 10.0 mi South 5.8 mph - N/A   Clear
9:35 PM 41.0 °F 38.0 °F 23.0 °F 49% 30.01 in 10.0 mi SSW 4.6 mph - N/A   Clear
9:55 PM 39.2 °F 35.9 °F 23.0 °F 52% 30.01 in 10.0 mi SSW 4.6 mph - N/A   Clear
10:15 PM 39.2 °F 35.9 °F 23.0 °F 52% 30.01 in 10.0 mi South 4.6 mph - N/A   Clear
10:35 PM 39.2 °F 35.0 °F 23.0 °F 52% 30.01 in 10.0 mi South 5.8 mph - N/A   Scattered Clouds
10:55 PM 41.0 °F 37.1 °F 23.0 °F 49% 30.00 in 10.0 mi South 5.8 mph - N/A   Mostly Cloudy
11:15 PM 41.0 °F 36.4 °F 23.0 °F 49% 30.00 in 10.0 mi South 6.9 mph - N/A   Mostly Cloudy
11:35 PM 41.0 °F 35.8 °F 24.8 °F 53% 30.00 in 10.0 mi South 8.1 mph - N/A   Overcast
11:55 PM 42.8 °F 38.6 °F 24.8 °F 49% 30.00 in 10.0 mi South 6.9 mph - N/A   Overcast